Time,TemperatureF,DewpointF,PressureIn,WindDirection,WindDirectionDegrees,WindSpeedMPH,WindSpeedGustMPH,Humidity,HourlyPrecipIn,Conditions,Clouds,dailyrainin,SoftwareType,DateUTC
2013-03-07 00:00:00,38.7,20.2,30.22,NE,42,0.0,0.0,47,0.00,,,0.00,VWS V14.01,2013-03-07 06:00:00,
2013-03-07 00:05:00,38.3,19.9,30.22,NE,42,0.0,0.0,47,0.00,,,0.00,VWS V14.01,2013-03-07 06:05:00,
2013-03-07 00:10:00,39.6,21.0,30.22,NE,42,0.0,0.0,47,0.00,,,0.00,VWS V14.01,2013-03-07 06:10:00,
2013-03-07 00:15:00,39.7,21.6,30.21,NE,42,0.0,0.0,48,0.00,,,0.00,VWS V14.01,2013-03-07 06:15:00,
2013-03-07 00:20:00,40.1,22.0,30.22,NE,42,0.0,0.0,48,0.00,,,0.00,VWS V14.01,2013-03-07 06:20:00,
2013-03-07 00:25:00,39.9,22.3,30.21,NE,42,0.0,0.0,49,0.00,,,0.00,VWS V14.01,2013-03-07 06:25:00,
2013-03-07 00:30:00,39.4,21.8,30.21,NE,42,0.0,0.0,49,0.00,,,0.00,VWS V14.01,2013-03-07 06:30:00,
2013-03-07 00:35:00,39.7,22.1,30.21,NE,42,0.0,0.0,49,0.00,,,0.00,VWS V14.01,2013-03-07 06:35:00,
2013-03-07 00:40:00,39.6,22.5,30.21,NE,42,0.0,0.0,50,0.00,,,0.00,VWS V14.01,2013-03-07 06:40:00,
2013-03-07 00:45:00,40.0,21.9,30.21,NE,42,0.0,0.0,48,0.00,,,0.00,VWS V14.01,2013-03-07 06:45:00,
2013-03-07 00:50:00,40.0,21.4,30.21,NE,42,0.0,0.0,47,0.00,,,0.00,VWS V14.01,2013-03-07 06:50:00,
2013-03-07 00:55:00,40.1,21.5,30.21,NE,42,0.0,0.0,47,0.00,,,0.00,VWS V14.01,2013-03-07 06:55:00,
2013-03-07 01:00:00,40.6,22.5,30.20,NE,42,0.0,0.0,48,0.00,,,0.00,VWS V14.01,2013-03-07 07:00:00,
2013-03-07 01:05:00,40.5,22.9,30.21,NE,42,0.0,0.0,49,0.00,,,0.00,VWS V14.01,2013-03-07 07:05:00,
2013-03-07 01:10:00,39.9,23.7,30.20,NE,42,0.0,0.0,52,0.00,,,0.00,VWS V14.01,2013-03-07 07:10:00,
2013-03-07 01:15:00,39.4,23.2,30.20,NE,42,0.0,0.0,52,0.00,,,0.00,VWS V14.01,2013-03-07 07:15:00,
2013-03-07 01:20:00,39.5,23.4,30.19,NE,42,0.0,2.0,52,0.00,,,0.00,VWS V14.01,2013-03-07 07:20:00,
2013-03-07 01:25:00,38.9,22.8,30.19,NE,42,0.0,1.0,52,0.00,,,0.00,VWS V14.01,2013-03-07 07:25:00,
2013-03-07 01:30:00,39.7,23.1,30.19,NE,42,0.0,0.0,51,0.00,,,0.00,VWS V14.01,2013-03-07 07:30:00,
2013-03-07 01:35:00,40.9,23.2,30.19,NE,42,0.0,0.0,49,0.00,,,0.00,VWS V14.01,2013-03-07 07:35:00,
2013-03-07 01:40:00,41.9,23.2,30.20,NE,42,0.0,0.0,47,0.00,,,0.00,VWS V14.01,2013-03-07 07:40:00,
2013-03-07 01:45:00,42.2,23.4,30.20,NE,42,0.0,0.0,47,0.00,,,0.00,VWS V14.01,2013-03-07 07:45:00,
2013-03-07 01:49:00,42.5,23.7,30.20,NE,42,0.0,1.0,47,0.00,,,0.00,VWS V14.01,2013-03-07 07:49:00,
2013-03-07 01:50:00,41.7,24.0,30.19,NE,42,1.0,1.0,49,0.00,,,0.00,VWS V14.01,2013-03-07 07:50:00,
2013-03-07 01:54:00,42.8,23.5,30.20,NE,42,1.0,1.0,46,0.00,,,0.00,VWS V14.01,2013-03-07 07:54:00,
2013-03-07 01:55:00,42.2,24.4,30.18,ENE,61,1.0,2.0,49,0.00,,,0.00,VWS V14.01,2013-03-07 07:55:00,
2013-03-07 02:00:00,42.9,23.6,30.20,NE,42,0.0,1.0,46,0.00,,,0.00,VWS V14.01,2013-03-07 08:00:00,
2013-03-07 02:05:00,42.1,23.3,30.20,NE,42,0.0,0.0,47,0.00,,,0.00,VWS V14.01,2013-03-07 08:05:00,
2013-03-07 02:09:00,40.9,23.7,30.20,NE,42,0.0,0.0,50,0.00,,,0.00,VWS V14.01,2013-03-07 08:09:00,
2013-03-07 02:10:00,41.0,23.8,30.18,ENE,60,0.0,1.0,50,0.00,,,0.00,VWS V14.01,2013-03-07 08:10:00,
2013-03-07 02:15:00,40.0,23.8,30.20,NE,42,0.0,0.0,52,0.00,,,0.00,VWS V14.01,2013-03-07 08:15:00,
2013-03-07 02:20:00,39.6,23.9,30.20,NE,41,0.0,0.0,53,0.00,,,0.00,VWS V14.01,2013-03-07 08:20:00,
2013-03-07 02:24:00,39.5,24.2,30.20,NE,42,0.0,0.0,54,0.00,,,0.00,VWS V14.01,2013-03-07 08:24:00,
2013-03-07 02:25:00,40.5,24.3,30.16,ENE,61,0.0,2.0,52,0.00,,,0.00,VWS V14.01,2013-03-07 08:25:00,
2013-03-07 02:30:00,39.4,24.1,30.19,NE,41,0.0,0.0,54,0.00,,,0.00,VWS V14.01,2013-03-07 08:30:00,
2013-03-07 02:35:00,39.5,24.2,30.19,NE,42,0.0,0.0,54,0.00,,,0.00,VWS V14.01,2013-03-07 08:35:00,
2013-03-07 02:40:00,40.0,24.3,30.19,NE,42,0.0,1.0,53,0.00,,,0.00,VWS V14.01,2013-03-07 08:40:00,
2013-03-07 02:44:00,40.8,23.6,30.19,NE,42,0.0,1.0,50,0.00,,,0.00,VWS V14.01,2013-03-07 08:44:00,
2013-03-07 02:45:00,41.2,24.9,30.16,ENE,64,1.0,2.0,52,0.00,,,0.00,VWS V14.01,2013-03-07 08:45:00,
2013-03-07 02:49:00,41.6,23.9,30.19,NE,42,1.0,1.0,49,0.00,,,0.00,VWS V14.01,2013-03-07 08:49:00,
2013-03-07 02:50:00,41.4,25.1,30.16,ENE,64,2.0,2.0,52,0.00,,,0.00,VWS V14.01,2013-03-07 08:50:00,
2013-03-07 02:55:00,42.2,23.9,30.18,ENE,60,1.0,2.0,48,0.00,,,0.00,VWS V14.01,2013-03-07 08:55:00,
2013-03-07 03:00:00,41.2,24.0,30.18,ENE,60,0.0,1.0,50,0.00,,,0.00,VWS V14.01,2013-03-07 09:00:00,
2013-03-07 03:05:00,41.1,23.9,30.18,ENE,61,0.0,0.0,50,0.00,,,0.00,VWS V14.01,2013-03-07 09:05:00,
2013-03-07 03:10:00,41.0,23.8,30.17,ENE,60,0.0,1.0,50,0.00,,,0.00,VWS V14.01,2013-03-07 09:10:00,
2013-03-07 03:15:00,40.9,23.7,30.17,ENE,61,0.0,0.0,50,0.00,,,0.00,VWS V14.01,2013-03-07 09:15:00,
2013-03-07 03:20:00,40.6,23.9,30.16,ENE,60,1.0,2.0,51,0.00,,,0.00,VWS V14.01,2013-03-07 09:20:00,
2013-03-07 03:25:00,40.5,24.3,30.16,ENE,61,0.0,2.0,52,0.00,,,0.00,VWS V14.01,2013-03-07 09:25:00,
2013-03-07 03:30:00,40.4,24.2,30.17,ENE,60,0.0,0.0,52,0.00,,,0.00,VWS V14.01,2013-03-07 09:30:00,
2013-03-07 03:35:00,40.7,24.5,30.17,ENE,61,1.0,1.0,52,0.00,,,0.00,VWS V14.01,2013-03-07 09:35:00,
2013-03-07 03:40:00,41.1,24.8,30.16,ENE,64,2.0,2.0,52,0.00,,,0.00,VWS V14.01,2013-03-07 09:40:00,
2013-03-07 03:45:00,41.2,24.9,30.16,ENE,64,1.0,2.0,52,0.00,,,0.00,VWS V14.01,2013-03-07 09:45:00,
2013-03-07 03:50:00,41.4,25.1,30.16,ENE,64,2.0,2.0,52,0.00,,,0.00,VWS V14.01,2013-03-07 09:50:00,
2013-03-07 03:55:00,42.1,25.3,30.16,ENE,64,0.0,2.0,51,0.00,,,0.00,VWS V14.01,2013-03-07 09:55:00,
2013-03-07 04:00:00,42.2,25.4,30.16,ENE,64,1.0,2.0,51,0.00,,,0.00,VWS V14.01,2013-03-07 10:00:00,
2013-03-07 04:05:00,42.3,25.5,30.16,ENE,64,1.0,2.0,51,0.00,,,0.00,VWS V14.01,2013-03-07 10:05:00,
2013-03-07 04:10:00,42.2,25.4,30.16,ENE,64,0.0,1.0,51,0.00,,,0.00,VWS V14.01,2013-03-07 10:10:00,
2013-03-07 04:15:00,41.7,24.9,30.16,ENE,64,0.0,0.0,51,0.00,,,0.00,VWS V14.01,2013-03-07 10:15:00,
2013-03-07 04:20:00,41.1,25.3,30.16,ENE,64,0.0,0.0,53,0.00,,,0.00,VWS V14.01,2013-03-07 10:20:00,
2013-03-07 04:25:00,40.3,25.0,30.16,ENE,64,0.0,1.0,54,0.00,,,0.00,VWS V14.01,2013-03-07 10:25:00,
2013-03-07 04:30:00,39.9,25.1,30.16,ENE,64,0.0,0.0,55,0.00,,,0.00,VWS V14.01,2013-03-07 10:30:00,
2013-03-07 04:35:00,39.5,24.7,30.16,ENE,64,0.0,0.0,55,0.00,,,0.00,VWS V14.01,2013-03-07 10:35:00,
2013-03-07 04:40:00,39.6,24.8,30.16,ENE,64,0.0,1.0,55,0.00,,,0.00,VWS V14.01,2013-03-07 10:40:00,
2013-03-07 04:45:00,39.5,24.7,30.16,ENE,64,0.0,0.0,55,0.00,,,0.00,VWS V14.01,2013-03-07 10:45:00,
2013-03-07 04:50:00,39.4,25.0,30.17,ENE,64,0.0,0.0,56,0.00,,,0.00,VWS V14.01,2013-03-07 10:50:00,
2013-03-07 04:55:00,39.5,24.7,30.17,ENE,64,0.0,0.0,55,0.00,,,0.00,VWS V14.01,2013-03-07 10:55:00,
2013-03-07 05:00:00,39.4,25.0,30.17,NE,54,0.0,0.0,56,0.00,,,0.00,VWS V14.01,2013-03-07 11:00:00,
2013-03-07 05:05:00,39.5,25.1,30.17,NE,54,0.0,0.0,56,0.00,,,0.00,VWS V14.01,2013-03-07 11:05:00,
2013-03-07 05:10:00,39.6,25.2,30.17,NE,54,0.0,0.0,56,0.00,,,0.00,VWS V14.01,2013-03-07 11:10:00,
2013-03-07 05:15:00,39.9,25.5,30.17,NE,54,0.0,0.0,56,0.00,,,0.00,VWS V14.01,2013-03-07 11:15:00,
2013-03-07 05:20:00,40.0,25.1,30.17,NE,54,0.0,0.0,55,0.00,,,0.00,VWS V14.01,2013-03-07 11:20:00,
2013-03-07 05:25:00,39.9,25.1,30.17,NE,54,0.0,0.0,55,0.00,,,0.00,VWS V14.01,2013-03-07 11:25:00,
2013-03-07 05:30:00,39.9,25.5,30.17,NE,54,0.0,0.0,56,0.00,,,0.00,VWS V14.01,2013-03-07 11:30:00,
2013-03-07 05:35:00,39.7,25.7,30.17,NE,55,0.0,0.0,57,0.00,,,0.00,VWS V14.01,2013-03-07 11:35:00,
2013-03-07 05:40:00,39.6,25.2,30.17,NE,54,0.0,0.0,56,0.00,,,0.00,VWS V14.01,2013-03-07 11:40:00,
2013-03-07 05:45:00,39.4,25.9,30.17,NE,54,0.0,0.0,58,0.00,,,0.00,VWS V14.01,2013-03-07 11:45:00,
2013-03-07 05:50:00,39.6,26.1,30.18,NE,54,0.0,0.0,58,0.00,,,0.00,VWS V14.01,2013-03-07 11:50:00,
2013-03-07 05:55:00,39.7,26.1,30.18,NE,54,0.0,0.0,58,0.00,,,0.00,VWS V14.01,2013-03-07 11:55:00,
2013-03-07 06:00:00,39.5,26.0,30.18,NE,54,0.0,0.0,58,0.00,,,0.00,VWS V14.01,2013-03-07 12:00:00,
2013-03-07 06:05:00,39.4,26.3,30.18,NE,55,0.0,0.0,59,0.00,,,0.00,VWS V14.01,2013-03-07 12:05:00,
2013-03-07 06:10:00,39.5,26.4,30.18,NE,55,0.0,0.0,59,0.00,,,0.00,VWS V14.01,2013-03-07 12:10:00,
2013-03-07 06:15:00,39.7,27.0,30.18,NE,54,0.0,0.0,60,0.00,,,0.00,VWS V14.01,2013-03-07 12:15:00,
2013-03-07 06:20:00,40.1,27.4,30.18,NE,54,0.0,0.0,60,0.00,,,0.00,VWS V14.01,2013-03-07 12:20:00,
2013-03-07 06:25:00,40.4,27.2,30.19,NE,54,0.0,0.0,59,0.00,,,0.00,VWS V14.01,2013-03-07 12:25:00,
2013-03-07 06:30:00,40.6,27.8,30.19,NE,54,0.0,0.0,60,0.00,,,0.00,VWS V14.01,2013-03-07 12:30:00,
2013-03-07 06:35:00,41.1,28.3,30.19,NE,54,0.0,0.0,60,0.00,,,0.00,VWS V14.01,2013-03-07 12:35:00,
2013-03-07 06:40:00,41.5,28.3,30.19,NE,54,0.0,0.0,59,0.00,,,0.00,VWS V14.01,2013-03-07 12:40:00,
2013-03-07 06:45:00,41.4,28.2,30.19,NE,54,0.0,0.0,59,0.00,,,0.00,VWS V14.01,2013-03-07 12:45:00,
2013-03-07 06:50:00,41.3,28.5,30.19,NE,54,0.0,0.0,60,0.00,,,0.00,VWS V14.01,2013-03-07 12:50:00,
2013-03-07 06:55:00,41.2,28.4,30.20,NE,55,0.0,0.0,60,0.00,,,0.00,VWS V14.01,2013-03-07 12:55:00,
2013-03-07 07:00:00,41.6,28.8,30.21,North,4,1.0,1.0,60,0.00,,,0.00,VWS V14.01,2013-03-07 13:00:00,
2013-03-07 07:05:00,41.5,28.7,30.21,North,4,0.0,1.0,60,0.00,,,0.00,VWS V14.01,2013-03-07 13:05:00,
2013-03-07 07:10:00,41.6,28.8,30.21,North,4,0.0,1.0,60,0.00,,,0.00,VWS V14.01,2013-03-07 13:10:00,
2013-03-07 07:15:00,41.5,28.7,30.22,North,4,0.0,0.0,60,0.00,,,0.00,VWS V14.01,2013-03-07 13:15:00,
2013-03-07 07:20:00,41.2,28.8,30.22,North,4,0.0,0.0,61,0.00,,,0.00,VWS V14.01,2013-03-07 13:20:00,
2013-03-07 07:25:00,41.1,29.5,30.22,North,4,0.0,0.0,63,0.00,,,0.00,VWS V14.01,2013-03-07 13:25:00,
2013-03-07 07:30:00,41.3,29.7,30.23,North,4,0.0,0.0,63,0.00,,,0.00,VWS V14.01,2013-03-07 13:30:00,
2013-03-07 07:35:00,41.7,29.7,30.23,North,4,0.0,0.0,62,0.00,,,0.00,VWS V14.01,2013-03-07 13:35:00,
2013-03-07 07:40:00,42.3,29.4,30.23,North,4,0.0,0.0,60,0.00,,,0.00,VWS V14.01,2013-03-07 13:40:00,
2013-03-07 07:45:00,42.6,29.7,30.23,North,4,0.0,0.0,60,0.00,,,0.00,VWS V14.01,2013-03-07 13:45:00,
2013-03-07 07:50:00,43.0,29.7,30.23,North,4,0.0,0.0,59,0.00,,,0.00,VWS V14.01,2013-03-07 13:50:00,
2013-03-07 07:55:00,43.7,32.0,30.24,North,4,0.0,0.0,63,0.00,,,0.00,VWS V14.01,2013-03-07 13:55:00,
2013-03-07 08:00:00,44.2,31.2,30.24,North,4,0.0,0.0,60,0.00,,,0.00,VWS V14.01,2013-03-07 14:00:00,
2013-03-07 08:05:00,44.9,31.5,30.24,North,5,0.0,0.0,59,0.00,,,0.00,VWS V14.01,2013-03-07 14:05:00,
2013-03-07 08:10:00,45.5,32.0,30.25,North,5,0.0,1.0,59,0.00,,,0.00,VWS V14.01,2013-03-07 14:10:00,
2013-03-07 08:15:00,46.1,32.6,30.25,ENE,77,1.0,2.0,59,0.00,,,0.00,VWS V14.01,2013-03-07 14:15:00,
2013-03-07 08:20:00,46.7,33.6,30.25,ESE,122,3.0,3.0,60,0.00,,,0.00,VWS V14.01,2013-03-07 14:20:00,
2013-03-07 08:25:00,47.2,32.8,30.25,ESE,106,4.0,5.0,57,0.00,,,0.00,VWS V14.01,2013-03-07 14:25:00,
2013-03-07 08:30:00,47.5,33.0,30.25,ESE,112,5.0,5.0,57,0.00,,,0.00,VWS V14.01,2013-03-07 14:30:00,
2013-03-07 08:35:00,47.7,33.7,30.26,ESE,120,3.0,5.0,58,0.00,,,0.00,VWS V14.01,2013-03-07 14:35:00,
2013-03-07 08:40:00,48.0,33.5,30.26,ESE,109,2.0,5.0,57,0.00,,,0.00,VWS V14.01,2013-03-07 14:40:00,
2013-03-07 08:45:00,48.4,34.3,30.25,ESE,116,5.0,5.0,58,0.00,,,0.00,VWS V14.01,2013-03-07 14:45:00,
2013-03-07 08:50:00,48.9,35.2,30.25,East,99,3.0,5.0,59,0.00,,,0.00,VWS V14.01,2013-03-07 14:50:00,
2013-03-07 08:55:00,49.6,35.9,30.25,East,87,5.0,5.0,59,0.00,,,0.00,VWS V14.01,2013-03-07 14:55:00,
2013-03-07 09:00:00,50.1,36.8,30.25,ESE,103,3.0,7.0,60,0.00,,,0.00,VWS V14.01,2013-03-07 15:00:00,
2013-03-07 09:05:00,50.3,37.4,30.26,SE,135,4.0,7.0,61,0.00,,,0.00,VWS V14.01,2013-03-07 15:05:00,
2013-03-07 09:10:00,50.7,39.0,30.26,ESE,123,5.0,8.0,64,0.00,,,0.00,VWS V14.01,2013-03-07 15:10:00,
2013-03-07 09:15:00,51.1,39.0,30.25,East,99,6.0,10.0,63,0.00,,,0.00,VWS V14.01,2013-03-07 15:15:00,
2013-03-07 09:20:00,51.5,39.7,30.25,ESE,115,6.0,8.0,64,0.00,,,0.00,VWS V14.01,2013-03-07 15:20:00,
2013-03-07 09:25:00,52.0,40.2,30.25,ESE,118,7.0,8.0,64,0.00,,,0.00,VWS V14.01,2013-03-07 15:25:00,
2013-03-07 09:30:00,52.2,40.8,30.25,SE,132,5.0,8.0,65,0.00,,,0.00,VWS V14.01,2013-03-07 15:30:00,
2013-03-07 09:35:00,52.6,40.8,30.25,East,98,7.0,9.0,64,0.00,,,0.00,VWS V14.01,2013-03-07 15:35:00,
2013-03-07 09:40:00,53.2,41.8,30.25,ESE,115,5.0,7.0,65,0.00,,,0.00,VWS V14.01,2013-03-07 15:40:00,
2013-03-07 09:45:00,53.4,41.1,30.25,ESE,116,5.0,7.0,63,0.00,,,0.00,VWS V14.01,2013-03-07 15:45:00,
2013-03-07 09:50:00,54.1,42.6,30.24,SE,130,7.0,8.0,65,0.00,,,0.00,VWS V14.01,2013-03-07 15:50:00,
2013-03-07 09:55:00,54.2,42.7,30.24,SE,146,5.0,8.0,65,0.00,,,0.00,VWS V14.01,2013-03-07 15:55:00,
2013-03-07 10:00:00,54.5,43.0,30.24,ESE,116,5.0,11.0,65,0.00,,,0.00,VWS V14.01,2013-03-07 16:00:00,
2013-03-07 10:05:00,55.1,43.2,30.24,SE,131,7.0,11.0,64,0.00,,,0.00,VWS V14.01,2013-03-07 16:05:00,
2013-03-07 10:10:00,56.1,43.3,30.24,East,95,3.0,10.0,62,0.00,,,0.00,VWS V14.01,2013-03-07 16:10:00,
2013-03-07 10:15:00,56.8,43.9,30.24,SE,129,5.0,10.0,62,0.00,,,0.00,VWS V14.01,2013-03-07 16:15:00,
2013-03-07 10:20:00,57.2,44.7,30.24,SSE,151,8.0,11.0,63,0.00,,,0.00,VWS V14.01,2013-03-07 16:20:00,
2013-03-07 10:25:00,57.7,45.2,30.24,SSW,196,7.0,9.0,63,0.00,,,0.00,VWS V14.01,2013-03-07 16:25:00,
2013-03-07 10:30:00,59.0,46.8,30.23,SE,137,10.0,12.0,64,0.00,,,0.00,VWS V14.01,2013-03-07 16:30:00,
2013-03-07 10:35:00,59.1,46.5,30.23,ESE,113,8.0,13.0,63,0.00,,,0.00,VWS V14.01,2013-03-07 16:35:00,
2013-03-07 10:40:00,59.8,47.2,30.23,South,172,6.0,16.0,63,0.00,,,0.00,VWS V14.01,2013-03-07 16:40:00,
2013-03-07 10:45:00,60.1,47.0,30.23,SE,137,13.0,15.0,62,0.00,,,0.00,VWS V14.01,2013-03-07 16:45:00,
2013-03-07 10:50:00,60.2,47.6,30.23,SSE,163,7.0,12.0,63,0.00,,,0.00,VWS V14.01,2013-03-07 16:50:00,
2013-03-07 10:55:00,60.4,47.3,30.22,ESE,113,7.0,13.0,62,0.00,,,0.00,VWS V14.01,2013-03-07 16:55:00,
2013-03-07 11:00:00,61.3,48.2,30.22,SSE,160,10.0,13.0,62,0.00,,,0.00,VWS V14.01,2013-03-07 17:00:00,
2013-03-07 11:05:00,61.4,47.0,30.21,ESE,115,14.0,18.0,59,0.00,,,0.00,VWS V14.01,2013-03-07 17:05:00,
2013-03-07 11:10:00,61.6,47.6,30.21,ESE,119,12.0,18.0,60,0.00,,,0.00,VWS V14.01,2013-03-07 17:10:00,
2013-03-07 11:15:00,61.3,47.3,30.21,ESE,112,9.0,12.0,60,0.00,,,0.00,VWS V14.01,2013-03-07 17:15:00,
2013-03-07 11:20:00,61.9,47.9,30.21,ESE,104,11.0,14.0,60,0.00,,,0.00,VWS V14.01,2013-03-07 17:20:00,
2013-03-07 11:25:00,62.5,46.1,30.20,SSW,201,5.0,14.0,55,0.00,,,0.00,VWS V14.01,2013-03-07 17:25:00,
2013-03-07 11:30:00,62.9,47.0,30.20,ESE,112,4.0,14.0,56,0.00,,,0.00,VWS V14.01,2013-03-07 17:30:00,
2013-03-07 11:35:00,63.5,46.6,30.20,SSE,149,11.0,12.0,54,0.00,,,0.00,VWS V14.01,2013-03-07 17:35:00,
2013-03-07 11:40:00,63.4,46.0,30.20,SE,136,8.0,16.0,53,0.00,,,0.00,VWS V14.01,2013-03-07 17:40:00,
2013-03-07 11:45:00,63.5,48.0,30.20,SSE,162,7.0,11.0,57,0.00,,,0.00,VWS V14.01,2013-03-07 17:45:00,
2013-03-07 11:50:00,63.9,46.0,30.20,South,177,8.0,12.0,52,0.00,,,0.00,VWS V14.01,2013-03-07 17:50:00,
2013-03-07 11:55:00,64.1,46.6,30.20,SSE,164,13.0,13.0,53,0.00,,,0.00,VWS V14.01,2013-03-07 17:55:00,
2013-03-07 12:00:00,64.2,45.7,30.20,East,99,4.0,16.0,51,0.00,,,0.00,VWS V14.01,2013-03-07 18:00:00,
2013-03-07 12:05:00,64.8,46.3,30.19,SSW,196,11.0,15.0,51,0.00,,,0.00,VWS V14.01,2013-03-07 18:05:00,
2013-03-07 12:10:00,64.9,45.8,30.19,SSE,156,10.0,16.0,50,0.00,,,0.00,VWS V14.01,2013-03-07 18:10:00,
2013-03-07 12:15:00,64.9,46.4,30.19,South,175,11.0,19.0,51,0.00,,,0.00,VWS V14.01,2013-03-07 18:15:00,
2013-03-07 12:20:00,65.0,47.0,30.18,SSE,147,8.0,13.0,52,0.00,,,0.00,VWS V14.01,2013-03-07 18:20:00,
2013-03-07 12:25:00,65.2,45.6,30.18,SE,137,7.0,13.0,49,0.00,,,0.00,VWS V14.01,2013-03-07 18:25:00,
2013-03-07 12:30:00,65.8,46.1,30.18,SSE,164,8.0,17.0,49,0.00,,,0.00,VWS V14.01,2013-03-07 18:30:00,
2013-03-07 12:35:00,66.1,46.4,30.17,SSW,213,5.0,13.0,49,0.00,,,0.00,VWS V14.01,2013-03-07 18:35:00,
2013-03-07 12:40:00,66.5,46.2,30.17,SE,133,8.0,12.0,48,0.00,,,0.00,VWS V14.01,2013-03-07 18:40:00,
2013-03-07 12:45:00,66.5,45.7,30.17,South,182,7.0,15.0,47,0.00,,,0.00,VWS V14.01,2013-03-07 18:45:00,
2013-03-07 12:50:00,67.6,47.2,30.16,SSW,200,10.0,15.0,48,0.00,,,0.00,VWS V14.01,2013-03-07 18:50:00,
2013-03-07 12:55:00,67.1,46.2,30.16,SSE,153,6.0,18.0,47,0.00,,,0.00,VWS V14.01,2013-03-07 18:55:00,
2013-03-07 13:00:00,66.7,47.0,30.16,SSE,149,8.0,17.0,49,0.00,,,0.00,VWS V14.01,2013-03-07 19:00:00,
2013-03-07 13:05:00,67.1,45.7,30.15,SSE,161,10.0,13.0,46,0.00,,,0.00,VWS V14.01,2013-03-07 19:05:00,
2013-03-07 13:10:00,67.2,46.3,30.15,SSE,147,8.0,16.0,47,0.00,,,0.00,VWS V14.01,2013-03-07 19:10:00,
2013-03-07 13:15:00,67.4,47.0,30.15,ESE,106,9.0,11.0,48,0.00,,,0.00,VWS V14.01,2013-03-07 19:15:00,
2013-03-07 13:20:00,67.9,46.4,30.14,ESE,123,12.0,19.0,46,0.00,,,0.00,VWS V14.01,2013-03-07 19:20:00,
2013-03-07 13:25:00,67.9,47.0,30.14,SSE,164,10.0,15.0,47,0.00,,,0.00,VWS V14.01,2013-03-07 19:25:00,
2013-03-07 13:30:00,67.6,46.7,30.14,SE,125,11.0,13.0,47,0.00,,,0.00,VWS V14.01,2013-03-07 19:30:00,
2013-03-07 13:35:00,68.4,45.0,30.14,South,181,6.0,19.0,43,0.00,,,0.00,VWS V14.01,2013-03-07 19:35:00,
2013-03-07 13:40:00,69.0,46.2,30.13,East,99,12.0,13.0,44,0.00,,,0.00,VWS V14.01,2013-03-07 19:40:00,
2013-03-07 13:45:00,69.5,46.0,30.13,SE,132,7.0,16.0,43,0.00,,,0.00,VWS V14.01,2013-03-07 19:45:00,
2013-03-07 13:50:00,68.3,46.2,30.14,SSE,153,11.0,19.0,45,0.00,,,0.00,VWS V14.01,2013-03-07 19:50:00,
2013-03-07 13:55:00,67.5,45.4,30.14,SSE,147,8.0,16.0,45,0.00,,,0.00,VWS V14.01,2013-03-07 19:55:00,
2013-03-07 14:00:00,67.1,45.1,30.13,South,187,8.0,13.0,45,0.00,,,0.00,VWS V14.01,2013-03-07 20:00:00,
2013-03-07 14:05:00,67.9,46.4,30.13,SE,139,6.0,14.0,46,0.00,,,0.00,VWS V14.01,2013-03-07 20:05:00,
2013-03-07 14:10:00,68.2,46.1,30.13,SE,129,12.0,16.0,45,0.00,,,0.00,VWS V14.01,2013-03-07 20:10:00,
2013-03-07 14:15:00,68.1,46.6,30.12,SE,139,13.0,15.0,46,0.00,,,0.00,VWS V14.01,2013-03-07 20:15:00,
2013-03-07 14:20:00,68.7,45.3,30.12,SSE,158,10.0,11.0,43,0.00,,,0.00,VWS V14.01,2013-03-07 20:20:00,
2013-03-07 14:25:00,68.4,45.7,30.11,SE,133,14.0,15.0,44,0.00,,,0.00,VWS V14.01,2013-03-07 20:25:00,
2013-03-07 14:30:00,68.7,45.3,30.11,SE,142,10.0,10.0,43,0.00,,,0.00,VWS V14.01,2013-03-07 20:30:00,
2013-03-07 14:35:00,68.6,45.8,30.11,ESE,119,11.0,11.0,44,0.00,,,0.00,VWS V14.01,2013-03-07 20:35:00,
2013-03-07 14:40:00,69.3,45.9,30.11,East,90,9.0,11.0,43,0.00,,,0.00,VWS V14.01,2013-03-07 20:40:00,
2013-03-07 14:45:00,69.4,46.0,30.11,SSE,168,7.0,13.0,43,0.00,,,0.00,VWS V14.01,2013-03-07 20:45:00,
2013-03-07 14:50:00,69.2,46.4,30.11,SE,142,9.0,9.0,44,0.00,,,0.00,VWS V14.01,2013-03-07 20:50:00,
2013-03-07 14:55:00,69.4,46.0,30.10,SSE,168,6.0,6.0,43,0.00,,,0.00,VWS V14.01,2013-03-07 20:55:00,
2013-03-07 15:00:00,69.3,46.5,30.10,SE,129,5.0,16.0,44,0.00,,,0.00,VWS V14.01,2013-03-07 21:00:00,
2013-03-07 15:05:00,70.0,45.9,30.10,SE,127,9.0,10.0,42,0.00,,,0.00,VWS V14.01,2013-03-07 21:05:00,
2013-03-07 15:10:00,70.5,45.7,30.10,SE,129,15.0,15.0,41,0.00,,,0.00,VWS V14.01,2013-03-07 21:10:00,
2013-03-07 15:15:00,70.3,45.5,30.10,SSE,158,14.0,19.0,41,0.00,,,0.00,VWS V14.01,2013-03-07 21:15:00,
2013-03-07 15:20:00,70.0,45.9,30.10,SSE,148,9.0,13.0,42,0.00,,,0.00,VWS V14.01,2013-03-07 21:20:00,
2013-03-07 15:25:00,70.1,46.0,30.09,South,177,13.0,13.0,42,0.00,,,0.00,VWS V14.01,2013-03-07 21:25:00,
2013-03-07 15:30:00,70.3,46.2,30.09,SE,144,10.0,10.0,42,0.00,,,0.00,VWS V14.01,2013-03-07 21:30:00,
2013-03-07 15:35:00,70.4,46.2,30.09,SSE,165,7.0,15.0,42,0.00,,,0.00,VWS V14.01,2013-03-07 21:35:00,
2013-03-07 15:40:00,70.4,46.2,30.09,SE,137,17.0,19.0,42,0.00,,,0.00,VWS V14.01,2013-03-07 21:40:00,
2013-03-07 15:45:00,70.8,46.0,30.09,SE,140,10.0,17.0,41,0.00,,,0.00,VWS V14.01,2013-03-07 21:45:00,
2013-03-07 15:50:00,70.2,45.4,30.09,ESE,111,13.0,22.0,41,0.00,,,0.00,VWS V14.01,2013-03-07 21:50:00,
2013-03-07 15:55:00,70.2,46.1,30.09,SE,137,15.0,18.0,42,0.00,,,0.00,VWS V14.01,2013-03-07 21:55:00,
2013-03-07 16:00:00,70.0,46.5,30.09,SE,137,9.0,16.0,43,0.00,,,0.00,VWS V14.01,2013-03-07 22:00:00,
2013-03-07 16:05:00,70.0,46.5,30.08,SSE,163,9.0,17.0,43,0.00,,,0.00,VWS V14.01,2013-03-07 22:05:00,
2013-03-07 16:10:00,69.9,47.0,30.08,SSE,161,7.0,19.0,44,0.00,,,0.00,VWS V14.01,2013-03-07 22:10:00,
2013-03-07 16:15:00,69.9,47.0,30.08,SSE,158,11.0,20.0,44,0.00,,,0.00,VWS V14.01,2013-03-07 22:15:00,
2013-03-07 16:20:00,69.6,46.1,30.08,SE,133,7.0,19.0,43,0.00,,,0.00,VWS V14.01,2013-03-07 22:20:00,
2013-03-07 16:25:00,69.9,45.8,30.08,SE,140,12.0,13.0,42,0.00,,,0.00,VWS V14.01,2013-03-07 22:25:00,
2013-03-07 16:30:00,69.7,46.8,30.08,ESE,118,12.0,15.0,44,0.00,,,0.00,VWS V14.01,2013-03-07 22:30:00,
2013-03-07 16:35:00,69.5,47.2,30.08,SE,127,13.0,18.0,45,0.00,,,0.00,VWS V14.01,2013-03-07 22:35:00,
2013-03-07 16:40:00,69.6,47.3,30.08,SE,125,11.0,18.0,45,0.00,,,0.00,VWS V14.01,2013-03-07 22:40:00,
2013-03-07 16:45:00,69.5,47.8,30.08,ESE,119,12.0,16.0,46,0.00,,,0.00,VWS V14.01,2013-03-07 22:45:00,
2013-03-07 16:50:00,69.6,47.9,30.08,ESE,108,11.0,16.0,46,0.00,,,0.00,VWS V14.01,2013-03-07 22:50:00,
2013-03-07 16:55:00,69.8,48.1,30.08,SE,132,12.0,14.0,46,0.00,,,0.00,VWS V14.01,2013-03-07 22:55:00,
2013-03-07 17:00:00,69.9,48.2,30.08,SE,143,7.0,16.0,46,0.00,,,0.00,VWS V14.01,2013-03-07 23:00:00,
2013-03-07 17:05:00,70.1,48.4,30.07,SE,126,7.0,9.0,46,0.00,,,0.00,VWS V14.01,2013-03-07 23:05:00,
2013-03-07 17:10:00,70.2,48.5,30.07,SE,132,9.0,12.0,46,0.00,,,0.00,VWS V14.01,2013-03-07 23:10:00,
2013-03-07 17:15:00,70.2,48.5,30.07,SE,125,9.0,13.0,46,0.00,,,0.00,VWS V14.01,2013-03-07 23:15:00,
2013-03-07 17:20:00,70.3,48.6,30.07,SE,140,9.0,17.0,46,0.00,,,0.00,VWS V14.01,2013-03-07 23:20:00,
2013-03-07 17:25:00,70.6,48.8,30.08,SSE,151,8.0,15.0,46,0.00,,,0.00,VWS V14.01,2013-03-07 23:25:00,
2013-03-07 17:30:00,71.0,48.6,30.07,SSE,162,8.0,14.0,45,0.00,,,0.00,VWS V14.01,2013-03-07 23:30:00,
2013-03-07 17:35:00,71.0,48.6,30.07,SE,132,10.0,14.0,45,0.00,,,0.00,VWS V14.01,2013-03-07 23:35:00,
2013-03-07 17:40:00,71.0,49.2,30.07,SE,139,6.0,14.0,46,0.00,,,0.00,VWS V14.01,2013-03-07 23:40:00,
2013-03-07 17:45:00,70.9,49.1,30.07,SE,136,7.0,11.0,46,0.00,,,0.00,VWS V14.01,2013-03-07 23:45:00,
2013-03-07 17:50:00,70.6,48.8,30.07,SSE,162,8.0,17.0,46,0.00,,,0.00,VWS V14.01,2013-03-07 23:50:00,
2013-03-07 17:55:00,70.4,48.7,30.07,SE,137,8.0,16.0,46,0.00,,,0.00,VWS V14.01,2013-03-07 23:55:00,
2013-03-07 18:00:00,70.2,48.5,30.07,SE,133,13.0,17.0,46,0.00,,,0.00,VWS V14.01,2013-03-08 00:00:00,
2013-03-07 18:05:00,70.0,48.9,30.08,SE,137,11.0,14.0,47,0.00,,,0.00,VWS V14.01,2013-03-08 00:05:00,
2013-03-07 18:10:00,69.9,48.8,30.08,SE,146,11.0,15.0,47,0.00,,,0.00,VWS V14.01,2013-03-08 00:10:00,
2013-03-07 18:15:00,69.7,48.6,30.08,SE,146,8.0,11.0,47,0.00,,,0.00,VWS V14.01,2013-03-08 00:15:00,
2013-03-07 18:20:00,69.5,49.0,30.09,SSE,160,9.0,14.0,48,0.00,,,0.00,VWS V14.01,2013-03-08 00:20:00,
2013-03-07 18:25:00,69.3,48.8,30.09,SSE,156,8.0,13.0,48,0.00,,,0.00,VWS V14.01,2013-03-08 00:25:00,
2013-03-07 18:30:00,69.0,49.1,30.08,SSE,149,7.0,12.0,49,0.00,,,0.00,VWS V14.01,2013-03-08 00:30:00,
2013-03-07 18:35:00,68.9,49.5,30.09,SSE,158,6.0,12.0,50,0.00,,,0.00,VWS V14.01,2013-03-08 00:35:00,
2013-03-07 18:40:00,68.8,49.4,30.08,SSE,160,8.0,12.0,50,0.00,,,0.00,VWS V14.01,2013-03-08 00:40:00,
2013-03-07 18:45:00,68.6,49.8,30.09,SE,126,7.0,11.0,51,0.00,,,0.00,VWS V14.01,2013-03-08 00:45:00,
2013-03-07 18:50:00,68.4,49.6,30.09,SSE,160,6.0,10.0,51,0.00,,,0.00,VWS V14.01,2013-03-08 00:50:00,
2013-03-07 18:55:00,68.3,50.0,30.09,SSE,157,6.0,9.0,52,0.00,,,0.00,VWS V14.01,2013-03-08 00:55:00,
2013-03-07 19:00:00,68.1,49.8,30.09,SSE,150,6.0,10.0,52,0.00,,,0.00,VWS V14.01,2013-03-08 01:00:00,
2013-03-07 19:05:00,67.9,50.2,30.09,SE,127,10.0,13.0,53,0.00,,,0.00,VWS V14.01,2013-03-08 01:05:00,
2013-03-07 19:10:00,67.8,51.1,30.09,SSE,149,7.0,16.0,55,0.00,,,0.00,VWS V14.01,2013-03-08 01:10:00,
2013-03-07 19:15:00,67.5,51.8,30.09,SE,142,15.0,16.0,57,0.00,,,0.00,VWS V14.01,2013-03-08 01:15:00,
2013-03-07 19:20:00,67.2,51.9,30.09,SE,135,14.0,19.0,58,0.00,,,0.00,VWS V14.01,2013-03-08 01:20:00,
2013-03-07 19:25:00,66.9,52.1,30.09,SE,129,12.0,18.0,59,0.00,,,0.00,VWS V14.01,2013-03-08 01:25:00,
2013-03-07 19:30:00,66.7,52.4,30.10,SSE,156,12.0,18.0,60,0.00,,,0.00,VWS V14.01,2013-03-08 01:30:00,
2013-03-07 19:35:00,66.6,52.8,30.09,SSE,154,10.0,17.0,61,0.00,,,0.00,VWS V14.01,2013-03-08 01:35:00,
2013-03-07 19:40:00,66.5,53.1,30.09,SSE,160,8.0,19.0,62,0.00,,,0.00,VWS V14.01,2013-03-08 01:40:00,
2013-03-07 19:45:00,66.3,52.9,30.09,SE,139,10.0,14.0,62,0.00,,,0.00,VWS V14.01,2013-03-08 01:45:00,
2013-03-07 19:50:00,66.0,52.6,30.10,SE,135,11.0,14.0,62,0.00,,,0.00,VWS V14.01,2013-03-08 01:50:00,
2013-03-07 19:55:00,65.8,52.9,30.10,SE,137,14.0,18.0,63,0.00,,,0.00,VWS V14.01,2013-03-08 01:55:00,
2013-03-07 20:00:00,65.7,53.2,30.10,SE,133,12.0,16.0,64,0.00,,,0.00,VWS V14.01,2013-03-08 02:00:00,
2013-03-07 20:05:00,65.5,53.0,30.11,SE,127,8.0,15.0,64,0.00,,,0.00,VWS V14.01,2013-03-08 02:05:00,
2013-03-07 20:10:00,65.4,52.9,30.11,SE,136,8.0,13.0,64,0.00,,,0.00,VWS V14.01,2013-03-08 02:10:00,
2013-03-07 20:15:00,65.3,53.2,30.11,ESE,120,5.0,13.0,65,0.00,,,0.00,VWS V14.01,2013-03-08 02:15:00,
2013-03-07 20:20:00,65.3,53.2,30.11,SE,128,6.0,10.0,65,0.00,,,0.00,VWS V14.01,2013-03-08 02:20:00,
2013-03-07 20:25:00,65.1,53.1,30.11,SE,146,9.0,11.0,65,0.00,,,0.00,VWS V14.01,2013-03-08 02:25:00,
2013-03-07 20:30:00,65.0,53.4,30.10,SE,130,7.0,12.0,66,0.00,,,0.00,VWS V14.01,2013-03-08 02:30:00,
2013-03-07 20:35:00,64.8,53.2,30.10,SE,143,8.0,14.0,66,0.00,,,0.00,VWS V14.01,2013-03-08 02:35:00,
2013-03-07 20:40:00,64.6,53.4,30.10,SE,139,11.0,16.0,67,0.00,,,0.00,VWS V14.01,2013-03-08 02:40:00,
2013-03-07 20:45:00,64.3,53.1,30.10,SE,139,8.0,11.0,67,0.00,,,0.00,VWS V14.01,2013-03-08 02:45:00,
2013-03-07 20:50:00,64.1,53.3,30.10,SSE,149,7.0,14.0,68,0.00,,,0.00,VWS V14.01,2013-03-08 02:50:00,
2013-03-07 20:55:00,64.0,53.2,30.11,SE,129,8.0,14.0,68,0.00,,,0.00,VWS V14.01,2013-03-08 02:55:00,
2013-03-07 21:00:00,63.7,53.0,30.11,SE,141,8.0,12.0,68,0.00,,,0.00,VWS V14.01,2013-03-08 03:00:00,
2013-03-07 21:05:00,63.6,53.3,30.11,SSE,154,12.0,18.0,69,0.00,,,0.00,VWS V14.01,2013-03-08 03:05:00,
2013-03-07 21:10:00,63.6,53.3,30.12,SE,144,12.0,18.0,69,0.00,,,0.00,VWS V14.01,2013-03-08 03:10:00,
2013-03-07 21:15:00,63.6,53.3,30.12,SSE,153,9.0,14.0,69,0.00,,,0.00,VWS V14.01,2013-03-08 03:15:00,
2013-03-07 21:20:00,63.5,53.2,30.12,SE,139,9.0,16.0,69,0.00,,,0.00,VWS V14.01,2013-03-08 03:20:00,
2013-03-07 21:25:00,63.5,53.5,30.12,SE,133,9.0,15.0,70,0.00,,,0.00,VWS V14.01,2013-03-08 03:25:00,
2013-03-07 21:30:00,63.4,53.5,30.11,SE,127,13.0,16.0,70,0.00,,,0.00,VWS V14.01,2013-03-08 03:30:00,
2013-03-07 21:35:00,63.3,53.4,30.11,SE,143,9.0,18.0,70,0.00,,,0.00,VWS V14.01,2013-03-08 03:35:00,
2013-03-07 21:40:00,63.2,53.3,30.12,SSE,157,11.0,17.0,70,0.00,,,0.00,VWS V14.01,2013-03-08 03:40:00,
2013-03-07 21:45:00,63.2,53.7,30.11,SE,142,8.0,19.0,71,0.00,,,0.00,VWS V14.01,2013-03-08 03:45:00,
2013-03-07 21:50:00,63.0,53.5,30.11,SSE,167,7.0,19.0,71,0.00,,,0.00,VWS V14.01,2013-03-08 03:50:00,
2013-03-07 21:55:00,62.8,53.3,30.11,SE,139,6.0,15.0,71,0.00,,,0.00,VWS V14.01,2013-03-08 03:55:00,
2013-03-07 22:00:00,62.6,53.1,30.11,SE,133,14.0,19.0,71,0.00,,,0.00,VWS V14.01,2013-03-08 04:00:00,
2013-03-07 22:05:00,62.4,53.3,30.11,SE,146,11.0,20.0,72,0.00,,,0.00,VWS V14.01,2013-03-08 04:05:00,
2013-03-07 22:10:00,62.1,53.0,30.11,SE,146,8.0,16.0,72,0.00,,,0.00,VWS V14.01,2013-03-08 04:10:00,
2013-03-07 22:15:00,62.0,53.3,30.11,SSE,150,10.0,13.0,73,0.00,,,0.00,VWS V14.01,2013-03-08 04:15:00,
2013-03-07 22:20:00,62.0,53.3,30.11,SE,144,11.0,15.0,73,0.00,,,0.00,VWS V14.01,2013-03-08 04:20:00,
2013-03-07 22:25:00,62.1,53.3,30.11,SE,137,11.0,16.0,73,0.00,,,0.00,VWS V14.01,2013-03-08 04:25:00,
2013-03-07 22:30:00,62.1,53.3,30.11,SE,126,13.0,16.0,73,0.00,,,0.00,VWS V14.01,2013-03-08 04:30:00,
2013-03-07 22:35:00,62.1,53.3,30.11,SSE,151,7.0,17.0,73,0.00,,,0.00,VWS V14.01,2013-03-08 04:35:00,
2013-03-07 22:40:00,62.1,53.3,30.11,ESE,119,15.0,15.0,73,0.00,,,0.00,VWS V14.01,2013-03-08 04:40:00,
2013-03-07 22:45:00,62.1,53.3,30.11,SE,137,12.0,18.0,73,0.00,,,0.00,VWS V14.01,2013-03-08 04:45:00,
2013-03-07 22:50:00,61.9,53.2,30.10,SE,135,8.0,18.0,73,0.00,,,0.00,VWS V14.01,2013-03-08 04:50:00,
2013-03-07 22:55:00,61.8,53.4,30.11,SE,143,10.0,17.0,74,0.00,,,0.00,VWS V14.01,2013-03-08 04:55:00,
2013-03-07 23:00:00,61.7,53.3,30.11,SE,135,14.0,18.0,74,0.00,,,0.00,VWS V14.01,2013-03-08 05:00:00,
2013-03-07 23:01:00,61.6,53.2,30.11,SE,138,11.0,13.0,74,0.00,,,0.00,VWS V14.01,2013-03-08 05:01:00,
2013-03-07 23:05:00,60.8,52.8,30.10,SSE,153,5.0,14.0,75,0.00,,,0.00,VWS V14.01,2013-03-08 05:05:00,
2013-03-07 23:06:00,61.6,53.2,30.11,SSE,149,12.0,12.0,74,0.00,,,0.00,VWS V14.01,2013-03-08 05:06:00,
2013-03-07 23:10:00,60.8,52.8,30.10,SE,146,11.0,16.0,75,0.00,,,0.00,VWS V14.01,2013-03-08 05:10:00,
2013-03-07 23:11:00,61.5,53.2,30.11,SSE,153,8.0,12.0,74,0.00,,,0.00,VWS V14.01,2013-03-08 05:11:00,
2013-03-07 23:15:00,60.8,52.8,30.10,SSE,149,8.0,14.0,75,0.00,,,0.00,VWS V14.01,2013-03-08 05:15:00,
2013-03-07 23:16:00,61.4,53.0,30.11,SSE,154,10.0,14.0,74,0.00,,,0.00,VWS V14.01,2013-03-08 05:16:00,
2013-03-07 23:20:00,60.7,53.1,30.10,SE,132,9.0,17.0,76,0.00,,,0.00,VWS V14.01,2013-03-08 05:20:00,
2013-03-07 23:21:00,61.3,53.0,30.10,SE,132,10.0,15.0,74,0.00,,,0.00,VWS V14.01,2013-03-08 05:21:00,
2013-03-07 23:25:00,60.7,53.1,30.10,SE,135,11.0,17.0,76,0.00,,,0.00,VWS V14.01,2013-03-08 05:25:00,
2013-03-07 23:26:00,61.3,53.0,30.10,ESE,123,6.0,10.0,74,0.00,,,0.00,VWS V14.01,2013-03-08 05:26:00,
2013-03-07 23:30:00,60.6,52.6,30.10,SE,126,17.0,17.0,75,0.00,,,0.00,VWS V14.01,2013-03-08 05:30:00,
2013-03-07 23:31:00,61.3,53.0,30.11,SSE,156,9.0,13.0,74,0.00,,,0.00,VWS V14.01,2013-03-08 05:31:00,
2013-03-07 23:35:00,60.5,52.5,30.10,SSE,155,11.0,18.0,75,0.00,,,0.00,VWS V14.01,2013-03-08 05:35:00,
2013-03-07 23:36:00,61.2,52.9,30.11,SE,125,10.0,13.0,74,0.00,,,0.00,VWS V14.01,2013-03-08 05:36:00,
2013-03-07 23:40:00,60.4,52.5,30.10,SE,143,7.0,13.0,75,0.00,,,0.00,VWS V14.01,2013-03-08 05:40:00,
2013-03-07 23:41:00,61.1,53.1,30.10,SE,146,6.0,11.0,75,0.00,,,0.00,VWS V14.01,2013-03-08 05:41:00,
2013-03-07 23:45:00,60.4,52.8,30.10,SE,135,6.0,13.0,76,0.00,,,0.00,VWS V14.01,2013-03-08 05:45:00,
2013-03-07 23:46:00,61.1,53.1,30.10,SE,132,8.0,12.0,75,0.00,,,0.00,VWS V14.01,2013-03-08 05:46:00,
2013-03-07 23:50:00,60.3,52.3,30.10,SE,132,8.0,14.0,75,0.00,,,0.00,VWS V14.01,2013-03-08 05:50:00,
2013-03-07 23:51:00,61.0,53.0,30.10,SE,136,9.0,12.0,75,0.00,,,0.00,VWS V14.01,2013-03-08 05:51:00,
2013-03-07 23:55:00,60.3,52.3,30.10,SE,139,6.0,13.0,75,0.00,,,0.00,VWS V14.01,2013-03-08 05:55:00,
2013-03-07 23:56:00,60.9,52.9,30.10,SSE,164,10.0,14.0,75,0.00,,,0.00,VWS V14.01,2013-03-08 05:56:00,